Wind_Speed
22 22 22 21 21 21 21 20 20 20 20 20 19 19 18 18 17 17 16 16 16 16 16 16 16 15 15 15 15 15 15 15 15 15 16 16 17 17 18 18 18 19 19 20 20 20 20 20 20 20 21 21 21 22 22 22 22 21 20 19 20 20 21 22 23 23 23 23 24 24 23 22 22 21 20 19 19 21 22 25 27 25 24 23 23 24 24 21
25 24 24 24 23 23 23 23 23 22 22 22 21 21 20 20 19 19 18 18 18 18 18 18 18 18 18 17 17 18 18 19 18 18 19 19 19 20 20 21 21 21 22 22 22 22 22 22 23 22 23 23 22 23 23 22 21 20 18 19 21 21 22 24 25 25 25 25 25 26 26 24 23 22 21 20 19 20 21 24 27 25 25 25 24 24 24 22
27 27 27 26 26 26 25 25 25 24 24 23 22 22 21 21 20 20 20 19 19 19 19 20 20 20 20 20 20 20 21 21 22 21 21 22 23 23 23 24 24 24 24 24 24 24 24 25 25 25 24 24 23 22 22 22 21 19 19 20 23 22 23 25 27 27 27 26 25 26 26 25 24 23 23 22 19 20 22 25 26 24 24 25 25 25 24 23
30 29 29 28 28 27 27 26 26 25 25 24 23 23 22 22 21 21 21 21 21 21 21 21 21 22 22 22 22 23 23 24 24 24 24 24 25 26 26 26 26 26 25 26 26 27 27 27 27 26 25 25 23 22 21 22 21 20 20 22 24 25 25 27 28 28 27 27 26 26 25 24 25 25 25 24 21 20 23 25 25 25 24 24 23 24 25 25
31 31 30 29 29 28 27 27 26 26 25 25 24 24 23 23 23 23 23 23 23 23 23 23 24 24 24 24 24 25 25 26 27 27 27 26 27 28 27 27 27 27 27 28 29 29 30 29 28 27 25 25 24 22 21 21 21 21 22 24 26 27 26 28 29 29 28 27 27 26 25 25 26 26 26 25 23 23 24 24 25 25 25 24 23 23 25 26
32 31 30 29 29 28 27 27 26 26 26 25 25 25 25 25 25 25 25 25 25 25 25 25 26 26 26 26 26 26 27 29 29 29 29 28 28 29 29 29 29 30 30 31 31 31 31 30 29 27 24 24 24 23 21 21 22 22 23 25 27 27 27 28 28 28 28 28 28 27 26 27 28 27 26 26 25 25 25 24 24 25 25 24 23 24 25 26
31 30 30 29 29 28 28 27 27 27 27 27 27 27 27 27 27 27 28 28 28 28 28 28 28 28 28 28 28 28 29 32 32 31 30 30 30 31 31 32 32 33 33 33 33 32 31 30 29 26 24 24 24 24 24 24 24 24 25 26 27 27 27 28 29 28 29 29 29 28 27 28 30 27 26 27 26 25 26 26 25 25 26 25 24 24 25 26
31 31 31 30 30 30 29 29 29 29 29 29 29 30 30 30 30 30 31 31 31 31 31 31 31 31 30 30 30 30 31 34 34 34 33 32 32 33 33 34 34 35 35 34 33 32 30 29 27 25 24 24 25 25 26 27 27 27 27 27 27 28 28 28 29 30 31 30 29 29 27 29 31 29 27 28 27 25 26 27 27 27 28 28 27 26 26 27
34 33 33 33 32 32 32 32 32 32 32 32 32 33 33 33 33 34 34 34 34 34 34 34 34 34 34 33 33 32 34 36 37 37 36 35 35 35 35 35 35 34 34 33 31 30 28 27 26 25 25 25 26 26 29 30 29 30 30 29 29 29 29 29 29 30 32 31 30 29 27 29 31 30 28 30 29 25 25 26 27 29 29 30 30 30 29 29
37 36 36 36 35 35 35 35 35 35 35 35 35 36 36 36 36 36 36 36 36 36 36 35 35 35 35 35 33 33 36 37 37 38 37 37 36 36 35 34 32 31 30 29 28 28 27 27 27 26 27 27 27 29 31 32 32 32 32 31 31 31 30 30 31 31 32 31 31 31 28 28 32 31 30 32 31 28 26 26 27 29 29 30 31 31 32 32
39 39 39 38 38 38 38 38 38 38 38 38 38 38 38 38 37 37 37 36 35 35 34 33 33 33 33 32 31 32 34 34 35 35 35 35 34 33 32 31 29 28 27 27 27 27 28 28 28 28 29 29 30 32 33 34 34 33 33 33 33 33 33 32 33 32 32 32 31 33 31 28 31 33 32 33 33 31 28 26 27 29 30 30 30 31 33 34
41 41 41 40 40 40 40 40 40 39 39 39 39 39 38 37 37 36 35 35 34 34 33 32 32 31 30 29 29 30 30 31 31 32 32 32 31 30 29 29 29 28 28 28 28 29 30 31 31 32 32 32 33 34 35 35 35 35 35 36 34 34 35 34 34 33 33 34 32 34 34 28 28 31 34 34 34 32 30 27 26 28 30 30 30 31 32 33
42 42 41 41 41 41 41 40 40 40 39 39 38 38 37 36 36 35 35 35 35 35 35 34 34 33 32 29 29 31 30 30 30 31 31 31 31 30 30 30 31 31 31 31 32 32 33 34 34 34 35 35 35 35 36 37 37 36 37 39 36 36 35 34 35 34 33 35 34 36 36 30 26 29 33 35 34 33 31 28 27 27 29 30 32 32 31 30
41 41 41 41 41 40 40 40 39 39 38 38 38 37 37 37 37 37 37 37 37 37 37 37 36 36 34 31 31 32 32 32 32 33 33 33 33 33 33 34 34 34 35 35 36 36 36 36 36 36 36 37 36 37 38 38 38 37 38 39 39 38 37 35 35 35 34 35 36 37 36 31 26 26 30 33 33 32 31 29 27 27 28 29 31 32 31 29
41 41 41 41 40 40 40 40 40 39 39 39 38 38 38 39 39 39 39 39 39 39 39 39 38 38 36 34 33 33 33 34 35 36 36 35 36 36 36 37 37 37 37 37 38 38 37 37 38 37 38 38 37 38 39 39 38 37 39 39 39 39 39 37 36 35 35 36 37 37 35 33 29 26 27 30 31 31 31 29 28 29 30 30 31 32 32 30
42 42 42 42 42 41 41 41 41 41 40 40 41 41 41 41 41 41 41 40 40 40 40 40 39 39 37 35 34 34 33 34 36 36 37 37 37 37 38 38 38 38 39 38 39 39 38 39 38 38 38 38 37 38 40 40 38 38 41 40 39 40 40 39 38 37 37 37 38 37 35 34 33 30 28 29 31 31 31 30 29 30 31 30 30 30 31 30
44 44 43 43 43 43 43 43 43 42 42 42 42 42 42 42 41 41 41 40 40 40 40 39 39 39 38 36 35 34 34 35 36 37 37 37 37 37 38 38 39 39 39 39 39 39 39 39 39 38 38 37 37 39 41 41 40 41 42 41 41 41 41 40 39 39 40 40 39 38 37 36 36 35 34 32 32 33 32 31 30 29 29 28 27 28 28 29
45 44 44 44 44 44 44 44 43 42 42 42 42 42 41 41 40 40 40 39 39 39 40 40 39 39 39 37 36 35 35 35 36 38 38 38 38 38 39 39 40 40 40 40 39 40 40 39 39 38 37 37 38 41 43 43 42 43 43 42 42 42 42 41 40 41 43 43 42 41 40 40 39 38 37 36 35 34 33 32 31 30 28 27 27 27 27 27
43 43 43 43 43 43 43 42 42 41 41 41 41 41 40 40 40 40 40 39 39 40 40 40 39 39 39 38 37 37 35 36 37 38 38 38 39 39 39 40 40 40 40 39 40 40 39 39 39 38 37 38 40 42 43 44 44 45 44 44 44 43 42 41 42 43 44 44 43 42 43 42 40 38 36 35 35 34 33 31 29 29 29 28 28 29 28 28
42 42 42 42 42 42 42 42 42 42 42 42 41 41 42 41 41 41 40 39 39 40 40 40 39 38 39 39 39 38 36 36 36 37 38 38 39 40 40 40 40 40 39 40 42 41 40 40 40 39 39 40 41 43 44 44 45 45 45 45 46 46 44 42 43 44 44 45 44 43 44 43 40 37 34 33 33 33 32 31 29 28 28 28 28 30 31 31
43 43 44 44 44 44 44 43 43 43 43 43 43 43 43 42 42 41 40 39 39 39 39 40 40 38 38 40 41 39 38 37 37 37 37 37 38 39 40 40 40 40 39 41 43 42 41 42 40 41 42 42 41 43 44 45 45 45 45 46 46 46 45 44 44 44 44 44 43 42 42 41 38 34 33 32 32 32 32 33 31 29 29 29 29 29 31 32
45 45 45 46 46 46 45 44 44 44 44 44 44 44 43 43 42 42 42 40 38 39 41 40 41 41 40 42 42 40 40 39 38 38 37 37 37 38 40 40 40 41 42 44 44 43 44 43 41 42 44 43 43 43 44 44 45 45 45 45 45 44 43 44 43 42 42 42 41 40 41 39 34 30 32 33 31 32 34 34 32 32 33 33 32 31 32 33
46 46 46 47 47 47 46 45 45 45 44 44 44 44 44 43 43 43 44 43 40 40 42 42 42 43 44 45 43 42 42 41 41 41 38 38 38 39 41 41 41 42 43 44 43 44 44 42 41 43 43 43 43 42 42 42 43 43 43 43 43 41 42 42 41 40 40 41 40 40 40 38 31 29 32 34 34 36 36 35 35 35 36 36 36 35 35 36
47 47 48 48 47 47 46 46 46 45 45 45 45 45 45 45 45 45 46 47 45 41 42 44 45 45 45 46 44 43 43 42 41 40 38 38 39 39 41 41 42 43 42 42 43 44 43 41 41 42 42 41 40 39 39 40 41 40 40 40 39 39 41 41 41 40 39 39 40 42 44 40 33 30 32 36 39 41 40 38 37 38 39 39 40 41 42 43
49 49 49 49 48 48 47 47 47 47 46 46 46 46 46 47 48 48 48 49 50 45 43 44 45 46 45 45 45 44 44 42 40 39 38 37 38 38 38 40 42 41 40 42 44 44 40 36 37 39 39 39 38 36 37 38 38 38 38 38 37 37 38 39 40 40 40 40 41 43 46 46 40 35 33 37 42 45 44 42 42 43 44 45 45 46 47 48
51 51 51 51 50 50 49 49 49 48 48 48 48 47 48 49 48 49 49 51 53 50 46 45 45 45 45 45 45 44 45 44 41 40 39 38 38 38 37 38 39 38 39 40 42 41 37 33 33 34 36 37 37 36 36 37 37 36 35 35 36 36 36 37 38 40 43 43 44 45 46 48 49 44 40 41 45 46 46 47 48 48 49 49 50 49 47 46
53 53 54 53 52 52 52 52 51 51 50 50 50 50 50 50 49 49 50 52 54 53 51 49 47 46 45 45 45 44 44 44 41 40 39 38 38 37 37 37 36 37 38 38 38 37 35 33 33 33 34 35 35 36 37 38 37 36 35 34 35 36 37 38 39 42 44 45 48 47 45 49 54 52 49 49 50 50 51 52 52 52 53 55 55 51 47 44
56 56 56 56 55 55 55 54 54 53 53 53 53 52 51 50 49 49 50 53 55 55 53 51 49 47 45 44 43 42 43 42 41 40 39 37 37 35 35 36 35 35 35 36 36 35 35 34 34 34 34 34 35 36 38 38 39 38 37 36 37 38 39 40 41 43 44 46 49 46 45 50 55 54 54 55 55 55 55 56 56 56 55 56 58 55 50 46
57 57 57 58 58 58 57 56 56 56 55 55 54 52 51 50 50 50 50 53 56 55 53 51 49 48 46 44 43 41 40 39 39 39 37 36 35 34 35 35 34 34 34 35 35 35 36 36 36 36 35 36 37 38 38 39 40 39 39 39 40 40 41 41 43 44 45 48 49 46 46 52 55 55 55 56 58 58 58 59 60 59 57 56 57 56 52 48
57 58 59 60 61 60 58 56 56 56 55 53 52 51 50 50 50 50 53 55 55 54 52 51 48 47 45 43 42 40 38 37 37 37 37 37 36 36 36 35 35 35 35 35 35 36 38 38 38 38 38 39 39 39 39 40 40 39 40 41 41 41 42 43 45 45 47 49 47 47 50 53 56 56 56 57 60 60 61 61 61 61 59 57 56 55 53 48
58 59 59 59 59 57 54 52 52 51 50 49 49 49 50 51 50 52 55 54 52 51 50 50 48 46 44 43 42 41 40 39 38 38 38 38 38 38 38 37 37 37 37 37 37 39 40 41 41 41 41 41 40 39 39 39 40 40 40 41 41 43 45 46 47 47 49 50 49 51 54 56 58 58 57 59 61 61 61 62 61 59 58 56 54 53 52 49
51 53 54 54 53 51 48 49 48 46 45 44 44 45 47 49 51 53 53 49 48 49 48 48 48 47 46 45 44 43 42 42 41 41 41 40 40 39 39 38 38 39 40 41 41 42 42 43 44 43 42 41 40 40 40 40 40 41 42 42 44 46 47 48 49 50 52 53 53 54 56 59 61 59 59 61 61 61 60 60 59 58 57 55 53 53 51 49
46 46 48 50 50 49 47 48 46 44 42 42 42 42 44 47 51 51 49 46 46 47 46 47 48 47 48 48 47 46 45 44 43 43 43 41 40 39 39 39 40 41 42 43 43 44 44 44 43 42 41 41 41 41 41 42 43 44 45 45 47 48 49 50 51 52 54 55 55 57 59 62 62 61 61 61 61 61 60 60 59 57 56 55 54 53 51 49
46 47 49 51 51 48 47 47 46 42 41 41 41 42 45 49 51 50 48 47 46 47 47 47 47 47 47 47 46 46 45 43 42 42 41 41 41 40 40 41 43 43 43 44 45 45 45 44 42 42 42 43 43 44 44 46 46 47 48 49 50 49 49 50 52 54 56 56 57 58 60 62 62 62 61 60 60 60 59 58 56 54 54 54 53 53 52 50
47 49 52 52 48 46 46 48 48 46 44 43 42 45 49 50 48 47 47 47 47 48 47 47 46 45 44 43 43 42 41 40 40 41 42 43 43 42 42 43 43 43 43 44 45 45 44 44 43 44 44 44 45 46 47 47 48 49 50 51 51 50 50 52 54 55 56 58 59 59 61 63 62 62 61 61 60 59 57 55 53 52 52 52 52 52 52 51
43 48 51 48 44 43 45 46 47 47 47 45 45 47 48 46 44 44 46 47 47 46 46 46 45 43 42 41 39 38 38 39 41 43 44 45 45 45 44 43 43 43 43 43 44 45 45 46 46 47 47 46 47 48 49 49 49 51 51 51 51 51 52 53 55 56 56 60 62 61 63 65 63 62 61 59 58 56 55 54 54 53 52 51 51 51 51 52
42 45 45 43 42 41 41 42 44 46 47 48 50 51 50 48 47 46 47 46 45 44 44 45 44 42 41 40 39 40 41 43 45 46 46 46 46 46 45 45 44 45 45 45 47 48 49 50 50 49 49 49 48 50 51 52 51 52 52 51 51 52 53 53 56 57 58 62 64 64 65 65 62 62 60 57 56 54 54 54 54 54 53 53 54 54 54 55
44 44 42 41 42 41 39 39 40 41 42 46 51 52 51 51 51 51 50 48 45 44 43 42 42 41 42 42 43 46 47 47 47 47 47 46 46 47 47 47 47 48 49 49 50 51 51 51 50 49 49 50 50 51 52 52 51 51 52 53 53 54 55 56 57 59 60 63 66 66 65 63 61 59 57 55 54 53 52 52 53 54 55 55 56 57 58 58
48 47 46 44 44 43 43 42 42 42 44 47 49 49 47 46 48 50 51 50 49 48 46 45 45 45 45 45 45 45 45 45 45 46 47 48 49 51 51 51 50 50 50 49 50 50 50 50 50 48 48 49 50 50 51 52 53 54 55 56 57 57 58 58 59 61 63 64 64 64 63 61 59 56 54 54 53 53 53 53 54 55 55 55 56 57 58 58
52 50 50 49 48 47 46 45 45 45 49 50 49 49 48 47 48 49 51 52 53 53 51 50 49 49 48 48 47 47 47 47 48 48 49 50 51 52 52 52 51 51 50 49 49 49 49 50 50 48 48 49 50 51 52 55 57 57 57 58 59 58 59 60 62 62 62 61 61 61 61 59 55 53 53 53 53 52 52 52 53 54 54 54 56 57 58 60
54 52 51 52 52 50 48 46 46 47 50 51 51 51 51 50 51 52 53 54 55 56 55 54 53 52 52 53 52 51 50 50 50 49 49 50 50 50 50 50 50 51 51 49 49 49 50 52 53 51 51 52 54 57 60 61 61 59 58 58 57 57 58 60 62 62 59 59 58 59 59 56 51 50 52 52 51 51 51 52 52 52 53 55 57 59 60 61
58 58 57 56 56 56 53 50 48 49 53 55 55 55 55 55 55 54 55 55 56 57 57 57 57 57 57 56 54 52 51 51 50 50 50 51 50 51 51 51 51 51 51 50 51 52 53 56 58 57 57 58 61 64 65 63 61 58 57 56 55 56 56 57 60 60 58 58 58 57 59 56 50 48 51 51 51 51 53 53 53 54 56 58 60 61 62 63
61 62 62 62 61 60 57 55 53 54 55 57 58 60 61 61 60 59 59 58 58 59 59 60 60 59 59 57 55 53 52 51 50 50 51 51 51 51 51 51 51 52 53 53 54 55 57 60 62 64 65 66 65 66 66 64 59 54 53 55 55 57 57 57 59 60 60 60 59 57 59 58 52 49 50 50 49 49 51 54 55 56 58 59 61 62 63 64
61 62 63 63 63 62 61 61 61 60 60 60 61 63 65 65 64 62 62 61 61 61 62 62 61 60 59 58 56 55 53 53 52 51 52 53 53 53 54 55 56 57 58 60 61 61 62 64 66 68 69 68 65 64 64 63 59 55 54 55 56 56 57 59 60 60 61 61 58 57 58 57 53 52 53 53 53 53 55 57 58 59 60 61 63 64 65 66
60 61 61 62 62 62 61 61 61 61 61 62 63 64 65 65 64 63 63 62 61 61 61 60 60 60 59 59 58 56 55 55 54 54 56 57 58 58 59 60 60 61 63 64 66 66 66 67 68 67 67 66 63 61 61 61 60 59 58 57 57 57 57 59 60 60 61 61 59 58 60 59 57 58 59 59 59 58 58 60 61 62 62 63 64 66 68 69
58 59 59 59 60 60 58 57 58 60 62 63 63 63 64 65 63 61 61 61 60 61 61 60 60 61 61 60 59 58 57 57 57 58 59 60 61 61 62 62 62 62 63 63 64 65 65 66 65 64 64 64 62 60 61 62 62 61 60 59 58 58 57 58 61 61 61 61 62 62 62 63 61 61 61 60 59 60 61 63 65 65 65 65 67 69 70 72
59 58 56 55 57 58 58 58 59 60 60 61 62 61 61 61 60 61 62 62 63 63 62 62 62 62 62 60 59 59 59 60 61 61 61 62 64 63 63 62 61 61 60 60 60 60 61 62 61 61 62 61 61 61 61 62 62 62 62 60 59 58 59 61 63 62 61 63 66 64 62 64 64 62 62 62 62 64 66 67 68 69 69 70 71 72 74 75
62 61 59 59 61 62 61 60 61 61 61 61 62 62 61 61 63 64 64 64 64 62 62 63 62 61 61 61 61 61 61 62 63 62 62 62 63 63 62 60 59 59 59 59 59 58 59 60 59 60 61 61 60 61 61 61 62 62 62 61 60 60 61 63 63 61 61 64 66 64 63 65 65 64 64 64 65 67 68 69 70 70 71 72 73 74 75 76
63 63 63 64 65 65 64 65 67 69 68 68 69 68 67 68 68 68 66 65 65 63 62 63 62 61 62 62 63 63 63 63 63 62 61 61 61 61 60 59 59 59 59 59 59 59 59 60 60 61 62 61 60 61 62 62 62 62 62 62 62 62 63 64 63 62 63 66 67 65 66 67 67 65 65 65 67 68 69 70 70 71 71 72 73 75 76 77
64 63 64 65 65 64 65 67 71 73 73 73 74 73 72 71 69 68 67 67 67 65 65 65 64 63 63 63 63 64 64 64 63 62 61 61 61 61 61 60 61 61 60 60 60 60 60 61 62 62 62 62 60 61 62 62 63 64 63 63 63 64 64 63 63 64 66 68 68 68 69 70 67 66 66 67 68 69 70 71 72 72 73 74 75 76 77 79
64 64 64 66 65 63 64 65 67 70 71 71 71 71 70 70 68 68 69 69 69 68 67 67 66 66 67 66 66 65 64 63 62 61 61 61 61 61 62 62 62 61 60 59 60 60 60 61 62 62 63 62 59 60 62 62 63 65 65 62 61 61 62 63 64 65 66 67 68 69 70 69 67 66 67 68 69 70 71 72 74 75 76 76 77 78 79 80
66 65 66 67 66 65 65 66 67 69 69 68 68 69 69 70 69 70 71 71 70 70 69 68 68 68 69 68 67 65 63 61 60 61 61 61 61 62 62 62 62 61 60 60 60 60 60 61 61 61 63 62 59 61 62 63 66 68 64 60 58 59 62 64 64 63 64 65 68 69 70 69 68 69 69 70 71 72 73 74 76 77 78 78 79 79 80 82
Wind_Direction
251 253 254 255 257 258 260 261 263 264 264 265 266 267 267 266 264 262 260 259 258 258 258 258 259 261 263 265 268 271 272 274 276 278 279 281 284 286 287 288 290 291 292 293 294 295 297 297 297 296 294 292 291 291 291 292 292 293 294 291 286 288 292 295 296 298 300 302 302 301 300 300 298 299 302 305 306 306 304 300 298 299 300 301 304 308 314 319
252 254 255 256 258 259 260 261 262 263 264 264 264 263 263 263 262 260 258 258 257 257 258 259 260 262 263 265 268 271 272 274 275 276 278 279 280 282 284 286 288 289 289 289 290 292 293 294 294 293 291 289 288 288 288 288 289 290 290 286 285 288 291 293 295 297 300 301 302 301 301 302 302 302 305 309 314 314 307 295 292 295 298 301 304 304 307 311
253 255 256 257 258 259 260 261 262 262 262 262 262 261 261 260 259 259 259 258 258 259 260 261 261 262 264 265 267 270 272 274 275 275 277 278 279 280 281 283 285 286 287 287 288 289 290 291 291 290 287 285 284 284 285 286 287 288 287 285 285 288 289 291 294 296 299 300 300 299 299 301 302 304 306 310 317 315 303 294 294 296 297 297 300 301 301 303
255 256 257 258 259 259 259 260 260 260 260 260 260 260 259 259 258 258 259 259 260 260 261 262 262 263 264 266 267 269 271 274 275 276 276 277 278 279 280 281 282 284 285 286 287 287 288 288 288 286 284 282 281 280 281 284 286 287 287 286 286 288 290 292 294 296 298 298 298 296 297 299 300 302 305 310 314 307 298 298 300 300 297 294 293 294 295 296
255 256 256 257 257 258 258 258 258 258 259 259 259 259 259 259 259 259 260 260 261 262 262 263 264 265 266 267 268 270 272 273 274 275 275 276 278 279 280 281 282 283 284 285 286 286 286 286 285 283 281 279 278 277 277 280 284 286 286 286 287 290 292 293 294 296 298 297 296 296 297 298 297 300 305 309 309 304 300 301 301 300 298 295 292 289 287 288
255 255 255 255 255 255 255 256 256 257 258 259 259 260 260 261 261 262 262 263 263 264 264 265 265 266 267 268 269 271 273 274 272 273 275 276 277 279 280 281 282 283 284 284 284 284 284 283 282 280 278 276 276 276 276 277 281 285 286 286 288 291 292 291 292 293 293 293 293 294 296 296 295 297 302 305 306 307 306 305 303 300 298 297 295 290 286 283
253 253 253 253 253 254 254 255 256 257 258 259 260 261 261 262 263 263 264 264 265 265 266 266 267 267 268 268 270 271 273 274 273 273 274 276 277 278 279 281 282 283 284 284 283 283 282 281 279 278 275 273 274 276 278 279 282 285 286 286 287 290 291 290 292 293 292 291 292 294 296 295 294 297 301 301 304 309 308 307 305 301 299 296 292 289 287 284
252 252 253 253 254 255 256 256 258 258 259 260 261 262 263 264 265 265 266 266 267 267 267 267 268 268 268 268 269 271 273 273 274 274 274 275 276 277 278 280 282 282 283 283 282 281 280 279 277 276 273 272 274 276 279 281 285 287 286 286 287 288 288 289 291 292 292 292 293 294 296 294 294 297 299 299 302 306 306 306 305 303 300 297 293 290 286 285
252 253 254 255 256 256 257 258 259 260 261 262 263 264 265 266 267 268 268 269 269 269 269 269 269 269 269 269 270 272 272 272 274 275 275 276 276 277 278 279 280 281 281 281 281 280 279 278 277 275 273 274 276 277 280 283 286 288 288 289 289 288 288 288 288 288 289 291 292 292 293 292 292 295 298 297 299 301 302 303 302 300 299 297 295 293 289 286
253 254 255 256 257 258 259 259 260 261 262 263 264 265 266 267 268 269 269 270 270 270 270 270 271 271 271 272 272 273 272 273 274 275 276 276 277 277 278 278 279 279 279 279 279 280 280 279 278 278 277 277 279 280 282 284 286 287 288 289 289 288 289 288 287 287 288 290 292 292 291 291 292 296 297 297 298 299 300 300 298 296 295 294 293 292 290 287
254 255 256 257 258 259 259 260 261 262 263 264 264 265 266 267 268 268 269 269 270 270 271 271 271 271 272 273 273 272 272 273 274 275 276 276 277 277 278 278 277 277 277 277 278 280 280 279 280 280 280 280 281 282 283 285 287 287 289 288 288 289 288 288 288 289 290 290 292 291 290 290 293 296 297 295 296 297 298 297 295 293 291 290 289 289 288 289
255 256 256 257 258 259 260 260 261 262 263 264 264 265 266 267 267 268 268 269 270 270 271 271 272 272 272 273 274 273 273 274 274 275 276 276 277 277 277 277 277 277 277 277 278 279 279 280 281 282 282 282 282 283 284 286 286 287 288 287 287 287 286 287 288 289 290 290 290 289 288 288 291 294 294 293 294 295 296 296 294 292 290 288 286 284 284 287
254 255 256 257 257 258 259 260 261 261 262 263 264 264 265 266 266 267 268 269 270 271 272 272 273 272 272 273 273 273 274 274 274 275 275 276 277 278 277 278 278 278 279 279 279 279 280 281 281 282 283 283 283 285 286 286 287 289 289 288 287 286 286 287 288 289 289 289 287 285 285 286 287 290 291 292 294 295 296 297 295 291 290 289 286 284 285 289
253 254 255 256 257 258 259 259 260 260 261 262 263 263 264 265 266 267 268 269 271 272 272 273 273 273 273 273 272 273 274 274 275 275 275 276 276 277 277 278 278 279 280 280 280 281 281 282 282 283 283 284 285 286 286 286 287 288 288 287 288 288 288 288 288 288 289 287 285 284 285 287 286 286 287 289 292 293 295 296 295 292 289 287 286 287 290 293
253 254 255 256 257 258 259 259 260 260 261 262 262 263 264 265 266 267 268 269 271 271 272 273 273 273 273 273 273 273 273 274 274 274 275 275 275 276 277 277 278 279 280 280 281 281 282 282 283 284 284 285 286 287 287 286 287 287 286 286 287 289 289 289 288 289 290 288 286 287 289 292 290 285 284 287 290 292 294 295 294 292 292 292 293 295 297 297
253 254 255 256 257 257 258 259 260 261 261 262 263 263 264 265 266 267 268 269 270 271 272 272 273 274 274 274 274 274 274 273 274 274 274 275 275 276 277 278 278 279 279 280 280 281 282 282 282 283 284 285 287 288 287 286 286 286 286 287 288 288 289 290 291 292 290 288 288 290 293 294 295 293 293 296 297 296 296 294 292 292 294 297 298 298 297 295
253 254 255 256 256 257 258 259 260 261 262 263 263 264 265 265 266 267 268 269 270 271 272 273 274 275 276 275 275 275 274 274 274 275 275 275 276 276 277 278 278 278 279 280 280 281 281 281 282 283 284 287 288 287 287 287 287 286 287 289 289 289 289 291 294 294 292 291 293 296 296 297 298 299 303 305 303 301 300 298 298 299 300 299 298 296 294 293
253 254 255 256 256 257 258 259 260 261 261 262 263 263 264 265 266 267 268 269 271 272 273 274 275 276 277 277 276 275 275 275 275 275 276 276 277 276 277 277 277 279 279 279 280 280 280 281 282 283 286 288 288 287 287 289 289 288 288 289 289 289 291 294 296 295 295 295 297 299 299 298 297 299 302 304 304 304 303 303 304 305 304 303 301 298 297 296
253 254 255 255 256 257 258 259 259 260 260 261 261 263 264 265 267 268 269 270 271 272 273 274 275 276 276 276 276 275 274 274 274 275 276 276 277 277 277 277 277 278 279 280 279 278 280 281 282 285 288 288 288 288 288 289 288 288 289 289 289 289 291 294 294 293 293 293 295 296 296 295 296 299 301 301 302 303 303 302 302 301 302 303 302 301 302 302
253 254 254 255 256 256 257 258 259 259 260 261 262 263 264 266 267 267 268 269 270 271 272 273 273 273 275 276 274 274 273 273 273 273 274 275 276 277 277 277 278 278 279 279 278 278 280 281 283 287 288 287 287 287 286 286 285 286 287 287 287 288 289 290 289 288 289 289 291 292 291 292 295 299 300 299 299 300 300 299 298 299 299 299 299 300 302 304
253 254 255 255 256 256 257 258 259 260 261 262 263 263 264 265 266 267 267 268 269 270 270 271 272 272 273 274 273 273 273 272 272 272 273 274 275 276 276 276 276 277 277 275 276 278 280 280 283 287 287 286 285 283 282 282 282 283 283 284 285 287 288 287 287 287 286 287 288 288 288 289 293 298 298 295 294 294 294 294 297 301 301 298 297 297 298 299
253 254 254 255 256 257 257 258 259 260 261 262 264 264 265 265 266 267 267 266 266 268 269 270 272 273 272 271 272 273 273 272 272 271 272 273 274 275 275 274 275 274 273 273 275 277 277 279 283 284 284 283 281 280 280 281 282 283 284 285 286 288 289 288 288 289 289 289 288 287 287 287 291 295 293 290 288 287 288 291 295 298 299 300 301 300 299 298
253 253 254 254 255 257 258 259 259 260 262 263 264 265 266 267 267 267 268 267 265 265 269 271 272 273 273 272 273 273 273 274 274 273 273 273 273 272 272 273 273 272 272 274 276 276 276 279 282 281 280 279 278 279 280 280 281 282 284 286 288 290 290 290 291 291 291 291 290 288 287 286 290 293 293 291 289 286 286 290 293 294 296 299 302 303 302 301
253 253 254 254 256 257 258 259 260 260 262 263 264 266 267 268 268 268 268 270 268 265 268 271 272 272 272 273 275 275 275 275 275 276 275 273 272 271 272 273 272 272 273 274 274 274 276 280 280 280 279 278 278 279 279 280 281 282 284 285 287 288 289 290 291 291 291 291 291 291 290 290 293 294 294 294 292 291 292 295 296 296 298 300 302 304 304 304
253 253 254 255 256 257 258 259 260 261 262 263 265 267 268 268 269 269 270 271 271 269 268 269 270 271 271 273 276 278 278 277 276 276 274 272 271 271 271 272 272 272 272 272 272 273 275 277 276 277 279 279 279 278 278 279 280 281 282 283 285 285 286 288 288 289 290 289 290 290 291 294 295 294 294 293 292 294 296 298 299 299 301 302 303 305 306 307
253 254 256 257 257 258 259 259 260 261 263 265 267 268 269 270 270 271 272 272 272 271 270 267 266 267 269 273 276 278 278 278 277 275 274 272 271 272 271 270 271 271 270 270 271 273 274 272 271 273 275 278 280 279 278 278 278 280 281 282 283 283 284 285 285 287 287 289 289 290 293 295 295 295 296 294 293 294 296 298 299 301 304 304 304 306 308 311
254 256 257 258 259 259 260 260 262 263 265 266 268 270 271 271 272 271 272 272 271 271 270 268 266 266 268 272 274 276 276 276 276 274 273 273 272 271 270 270 270 269 269 270 271 272 272 271 272 273 274 276 279 279 279 280 281 281 281 281 282 283 283 284 285 286 287 289 289 292 297 296 294 296 297 296 295 296 298 300 301 303 305 304 304 306 309 311
256 257 258 259 260 260 261 262 263 265 266 267 268 269 270 270 270 270 270 271 270 269 270 271 271 271 272 273 274 274 274 273 273 273 272 272 271 270 270 270 269 267 268 269 270 271 272 274 275 275 276 276 276 275 277 280 282 282 283 284 284 284 284 285 285 286 287 287 288 293 297 294 292 294 295 296 297 299 301 303 303 304 305 305 304 306 308 309
258 258 259 260 260 261 262 263 264 265 266 267 267 268 268 268 268 268 268 268 268 269 271 273 275 276 277 277 277 275 273 272 271 271 271 270 270 270 269 269 268 267 267 268 270 272 275 275 276 277 278 277 276 276 277 279 280 282 283 284 284 284 285 285 285 285 286 286 288 294 294 291 290 291 293 296 298 299 301 304 305 305 306 307 307 307 307 307
259 259 259 259 260 261 262 264 265 266 265 265 265 265 265 266 266 267 265 265 267 270 273 275 275 277 278 278 278 277 275 272 270 270 270 270 270 270 270 270 270 270 271 273 274 275 277 277 279 281 280 280 280 279 279 280 280 282 283 282 283 284 284 284 284 285 285 286 290 292 291 290 291 292 295 297 298 299 301 302 303 303 304 305 305 305 305 304
258 259 259 260 261 262 264 265 265 264 264 263 263 263 264 265 265 264 264 266 269 271 273 275 276 277 276 276 277 277 276 274 273 272 271 271 271 271 272 273 274 275 277 278 278 277 279 281 282 283 283 282 281 280 279 279 280 280 280 280 281 282 282 282 283 284 285 287 289 289 289 290 290 291 295 296 296 298 299 299 300 300 301 301 300 299 300 300
257 258 259 260 262 263 265 267 265 263 263 262 262 261 261 262 262 262 263 267 271 272 273 275 275 275 275 275 276 276 275 275 275 274 273 272 273 273 275 276 277 278 279 279 279 279 281 283 284 284 284 283 281 279 279 278 278 278 278 279 280 280 280 280 282 284 284 285 285 287 289 289 289 292 295 296 296 296 296 297 297 298 298 297 297 296 296 297
257 258 259 261 263 264 264 266 265 264 264 263 262 262 261 260 260 262 266 270 273 274 274 274 273 273 274 275 276 275 274 274 275 274 274 275 276 276 277 279 279 279 279 279 279 280 281 282 283 283 282 281 280 279 279 278 278 278 278 279 278 278 279 280 283 283 283 284 285 287 288 289 291 294 296 296 295 294 295 296 296 296 295 295 295 295 294 293
257 257 257 258 259 259 259 262 263 262 262 263 264 266 265 264 265 270 275 278 277 275 274 274 273 274 275 277 278 277 276 276 276 276 276 276 277 278 279 279 278 278 278 278 278 280 281 281 282 280 279 280 279 277 276 276 277 277 278 277 276 277 279 281 282 282 284 285 285 287 288 291 295 296 296 295 294 294 295 295 295 294 292 292 292 292 292 290
253 249 248 249 248 249 251 256 260 259 258 259 259 261 265 269 272 276 279 278 277 276 277 276 276 277 277 277 277 276 275 275 275 274 274 275 277 278 278 277 276 276 277 277 278 279 280 281 281 280 278 277 275 273 272 272 273 274 275 276 277 278 280 281 281 282 284 284 285 288 291 293 296 295 295 294 294 294 294 293 291 290 290 289 289 288 287 286
245 240 241 244 243 244 247 249 252 253 253 252 252 256 263 268 269 270 271 272 272 274 275 276 276 276 275 274 272 270 270 270 271 273 274 275 276 275 275 274 275 276 276 277 278 279 280 281 281 280 277 275 273 271 271 271 272 273 274 275 276 277 277 279 281 282 283 283 287 290 292 293 293 292 293 292 290 289 289 288 288 287 288 288 286 285 283 281
240 237 241 245 244 245 248 250 252 253 253 253 255 258 261 262 263 265 267 268 268 269 268 268 268 267 266 266 267 268 270 270 271 272 272 273 274 273 273 274 275 277 278 279 279 279 279 280 280 279 277 275 274 272 272 273 274 275 276 277 277 277 278 280 281 282 283 284 287 290 290 291 291 290 292 290 287 286 286 285 286 285 285 285 284 283 281 279
241 238 239 243 244 245 248 250 253 255 255 254 256 259 261 261 261 264 265 265 264 263 262 262 262 262 262 264 266 269 270 270 270 270 270 271 272 272 272 274 276 278 279 280 279 278 279 278 279 279 276 275 276 276 276 277 277 278 278 278 279 280 281 283 282 284 285 285 287 288 288 288 289 289 290 288 286 286 285 285 284 283 283 282 282 281 280 279
245 242 241 241 244 246 248 251 254 258 257 255 254 258 260 261 260 261 263 264 262 260 259 259 261 263 265 266 267 268 268 269 270 271 272 272 274 274 274 276 279 280 280 279 278 278 278 276 277 278 276 275 276 276 277 279 279 279 279 280 281 283 284 284 283 285 285 284 285 285 285 286 289 289 288 286 284 284 283 282 282 282 282 281 280 278 277 276
249 247 246 246 246 248 252 255 257 258 259 258 258 259 259 260 260 261 262 263 262 262 262 263 265 268 270 271 271 271 272 272 274 275 275 275 276 276 277 279 281 280 279 278 276 276 274 272 272 274 274 273 274 275 276 278 280 280 281 282 283 283 284 283 283 285 284 282 281 281 282 284 286 285 284 282 281 280 279 279 279 279 279 278 276 274 273 273
249 250 251 253 253 254 255 256 256 257 259 260 260 260 260 260 261 262 261 261 262 263 264 266 268 270 273 274 275 275 275 275 274 272 271 271 272 271 272 275 275 275 275 274 272 270 268 268 269 269 269 271 275 277 278 279 280 280 280 280 281 282 282 281 282 285 283 280 279 280 281 282 282 282 282 280 279 279 278 278 277 276 276 275 273 270 269 270
248 249 252 254 257 259 259 257 254 255 258 261 262 262 262 262 262 261 260 259 260 262 264 267 270 273 275 276 277 276 275 273 272 269 267 266 265 264 265 268 268 268 267 266 266 266 266 269 272 273 273 275 277 279 280 281 280 280 279 280 281 281 281 280 282 284 282 279 280 280 279 281 282 282 281 281 281 279 278 278 277 276 275 274 271 269 268 269
249 250 251 253 257 259 259 257 255 254 257 260 263 264 263 263 262 261 260 260 263 265 267 270 272 274 276 277 277 276 274 271 270 268 265 263 261 262 265 267 266 266 265 265 266 267 270 274 277 278 279 279 279 280 281 281 281 279 279 280 280 280 281 281 281 282 280 278 279 278 277 280 282 281 281 283 281 277 277 279 278 277 276 274 272 271 270 270
251 251 251 253 255 257 258 259 260 261 262 262 261 261 261 261 261 260 260 262 266 269 270 271 272 274 276 277 276 275 273 270 269 267 263 262 262 264 266 267 267 268 269 270 271 272 275 278 278 280 280 279 278 279 280 280 280 277 277 278 279 280 281 280 280 280 277 277 277 275 275 279 281 281 282 282 278 277 278 278 277 276 275 273 272 271 271 271
252 252 251 252 253 255 258 260 261 262 261 259 258 256 257 257 259 260 261 263 266 269 270 272 273 274 275 275 274 273 272 270 269 267 265 265 265 266 268 268 268 269 270 271 273 273 275 277 277 278 277 277 278 277 277 276 275 275 276 277 277 279 279 279 278 276 275 275 274 273 276 279 279 281 282 280 278 279 278 277 275 274 274 273 272 271 271 271
251 250 250 251 252 252 252 251 250 249 250 251 252 253 254 255 257 258 260 262 265 269 272 274 274 274 274 274 274 273 272 272 270 270 270 270 270 270 270 270 271 271 271 272 273 273 273 274 274 275 275 275 277 276 274 273 273 274 275 276 277 277 277 276 275 273 273 274 274 275 279 280 279 279 280 280 279 278 276 275 275 275 274 273 271 270 270 270
249 248 248 247 246 246 244 241 240 241 243 246 248 249 250 252 255 258 261 265 269 271 273 274 273 273 274 274 274 272 271 270 269 270 272 273 273 273 273 273 273 273 273 273 272 272 272 273 274 274 273 274 275 274 274 273 273 274 275 275 276 276 276 275 274 274 276 277 277 279 281 281 281 281 281 280 279 278 277 277 276 277 276 275 274 273 273 273
249 248 247 244 242 241 240 239 241 243 245 248 250 249 249 252 259 265 268 270 271 271 271 271 271 272 273 273 272 271 270 270 270 272 273 273 273 273 274 274 274 275 275 275 275 274 273 274 275 274 273 274 274 274 273 273 273 274 274 275 276 276 275 274 274 277 279 280 281 282 281 280 281 283 282 280 279 279 279 279 278 278 278 277 277 277 277 277
251 250 249 247 246 245 243 243 246 249 251 253 255 255 256 260 266 269 270 270 270 269 270 270 271 271 271 271 271 271 271 272 273 274 274 273 273 274 275 275 275 275 276 276 276 275 274 275 275 273 273 274 274 274 273 272 272 273 273 274 276 275 274 273 275 277 278 279 280 282 281 281 282 282 282 281 280 280 280 280 280 280 279 279 279 279 279 280
253 252 251 251 250 249 248 247 249 253 255 257 260 261 263 266 268 269 269 269 269 270 270 270 271 271 270 270 271 272 273 273 273 273 273 273 273 273 274 274 275 275 276 275 275 274 274 274 274 273 273 273 274 273 272 272 272 272 272 274 276 276 276 276 276 277 277 278 281 282 282 282 283 283 282 282 282 282 282 282 282 281 280 280 280 281 281 281
253 253 253 253 252 251 251 251 251 253 255 256 259 262 263 265 267 267 268 268 269 269 270 270 271 271 271 271 272 273 273 273 272 272 272 272 272 272 272 273 274 275 275 274 273 273 273 273 273 273 272 272 273 272 271 272 272 271 273 276 278 278 278 277 276 276 278 280 281 281 282 283 283 283 282 283 282 282 282 282 282 282 282 281 281 281 281 281
252 253 253 254 254 254 253 254 254 255 256 257 259 261 262 263 265 266 267 267 268 269 269 269 270 270 271 272 272 272 272 271 270 270 270 271 271 272 272 272 273 274 273 273 272 272 272 272 272 272 272 272 272 271 272 272 270 271 276 280 279 277 276 276 277 278 280 281 281 281 282 283 283 282 282 282 282 282 283 283 283 283 283 283 283 283 283 283
Height
5868 5868 5869 5869 5870 5870 5871 5871 5872 5872 5872 5873 5873 5873 5874 5874 5874 5874 5875 5875 5875 5876 5876 5876 5877 5877 5877 5877 5877 5877 5877 5877 5878 5878 5878 5878 5878 5878 5878 5878 5878 5878 5878 5878 5878 5878 5878 5877 5877 5877 5877 5877 5876 5876 5876 5876 5876 5876 5876 5875 5874 5873 5873 5872 5872 5872 5872 5871 5870 5869 5869 5869 5869 5868 5869 5868 5868 5867 5866 5863 5861 5862 5862 5862 5862 5860 5859 5859
5866 5866 5867 5867 5868 5868 5869 5869 5869 5870 5870 5871 5871 5871 5872 5872 5872 5872 5873 5873 5873 5874 5874 5874 5875 5875 5875 5875 5875 5875 5875 5875 5876 5876 5876 5876 5876 5876 5876 5876 5876 5876 5876 5876 5876 5876 5876 5875 5875 5875 5875 5875 5875 5874 5874 5874 5874 5874 5874 5873 5872 5872 5871 5870 5870 5869 5869 5869 5868 5866 5866 5866 5866 5866 5866 5867 5867 5866 5864 5861 5859 5860 5860 5860 5860 5859 5858 5857
5863 5864 5864 5865 5865 5866 5866 5866 5867 5867 5868 5868 5869 5869 5869 5870 5870 5870 5871 5871 5871 5872 5872 5872 5873 5873 5873 5873 5874 5873 5873 5873 5873 5874 5874 5874 5874 5874 5874 5874 5874 5874 5874 5874 5874 5874 5874 5874 5873 5873 5873 5872 5873 5872 5871 5871 5871 5872 5872 5871 5870 5870 5870 5868 5867 5867 5867 5867 5866 5864 5864 5864 5863 5863 5863 5864 5865 5864 5861 5858 5857 5858 5859 5858 5858 5856 5855 5855
5860 5861 5861 5862 5862 5863 5863 5864 5864 5865 5865 5866 5866 5867 5867 5867 5868 5868 5869 5869 5869 5870 5870 5870 5871 5871 5871 5871 5872 5872 5871 5871 5871 5871 5872 5872 5872 5872 5872 5872 5872 5872 5872 5872 5872 5872 5872 5872 5871 5871 5871 5870 5870 5870 5870 5869 5869 5870 5869 5869 5868 5868 5868 5866 5865 5865 5865 5864 5864 5863 5862 5862 5861 5860 5861 5861 5862 5861 5858 5856 5855 5856 5856 5856 5856 5854 5853 5852
5857 5858 5858 5859 5859 5860 5861 5861 5862 5862 5863 5863 5864 5864 5865 5865 5865 5866 5866 5867 5867 5868 5868 5868 5868 5869 5869 5869 5870 5870 5869 5869 5869 5869 5869 5870 5870 5869 5870 5870 5870 5870 5870 5870 5869 5869 5869 5869 5869 5869 5869 5868 5868 5868 5868 5868 5867 5868 5867 5866 5865 5865 5866 5864 5863 5862 5862 5861 5861 5861 5861 5860 5859 5859 5859 5859 5859 5858 5856 5855 5854 5853 5853 5853 5853 5852 5851 5849
5854 5855 5855 5856 5857 5857 5858 5858 5859 5859 5860 5860 5861 5862 5862 5862 5863 5863 5864 5864 5865 5865 5866 5866 5866 5867 5867 5867 5867 5868 5867 5866 5866 5866 5867 5867 5867 5867 5867 5867 5867 5867 5867 5867 5867 5866 5866 5866 5866 5866 5867 5866 5865 5865 5866 5866 5865 5866 5865 5864 5863 5863 5863 5862 5861 5861 5860 5859 5858 5858 5859 5858 5857 5857 5857 5856 5856 5855 5854 5853 5852 5851 5850 5850 5850 5849 5848 5846
5851 5851 5852 5853 5853 5854 5855 5856 5856 5857 5857 5858 5858 5859 5859 5860 5860 5861 5861 5862 5862 5863 5863 5863 5864 5864 5865 5865 5865 5866 5865 5863 5863 5864 5864 5865 5865 5865 5865 5864 5865 5864 5864 5864 5863 5863 5863 5863 5863 5863 5864 5863 5862 5863 5863 5863 5863 5863 5863 5862 5861 5860 5860 5859 5858 5858 5857 5856 5856 5856 5857 5855 5854 5855 5856 5854 5854 5854 5852 5851 5850 5849 5848 5847 5846 5846 5844 5843
5847 5848 5849 5850 5850 5851 5852 5853 5853 5854 5854 5855 5855 5856 5856 5857 5857 5858 5858 5859 5859 5860 5860 5861 5861 5861 5862 5862 5863 5863 5862 5860 5859 5860 5861 5862 5862 5862 5862 5862 5862 5861 5861 5861 5860 5860 5860 5860 5860 5861 5861 5860 5860 5860 5859 5859 5860 5860 5859 5859 5859 5858 5857 5856 5855 5854 5853 5853 5853 5854 5854 5852 5851 5852 5853 5851 5852 5852 5850 5848 5847 5846 5844 5843 5842 5842 5841 5840
5844 5844 5845 5846 5847 5848 5849 5849 5850 5851 5851 5852 5852 5853 5853 5854 5854 5855 5855 5855 5856 5856 5857 5857 5858 5858 5859 5859 5860 5861 5859 5857 5857 5857 5858 5858 5858 5859 5859 5859 5859 5858 5858 5857 5857 5857 5857 5857 5857 5858 5858 5858 5858 5857 5856 5856 5857 5856 5855 5855 5855 5854 5854 5853 5853 5852 5850 5850 5850 5851 5852 5850 5847 5849 5850 5848 5848 5850 5849 5847 5845 5843 5841 5840 5838 5837 5837 5836
5840 5841 5842 5843 5844 5844 5845 5846 5846 5847 5848 5848 5849 5849 5850 5850 5851 5851 5851 5852 5852 5853 5853 5854 5854 5854 5855 5855 5857 5857 5855 5854 5854 5853 5854 5854 5855 5855 5855 5855 5855 5855 5855 5855 5854 5854 5855 5854 5854 5855 5855 5855 5855 5854 5853 5853 5853 5853 5852 5852 5851 5851 5851 5850 5849 5849 5847 5847 5847 5847 5849 5848 5844 5845 5846 5844 5844 5845 5847 5846 5843 5841 5839 5838 5836 5834 5832 5831
5836 5837 5838 5839 5840 5840 5841 5842 5843 5843 5844 5845 5845 5846 5846 5846 5847 5847 5848 5848 5848 5849 5850 5850 5851 5851 5852 5852 5853 5853 5852 5852 5851 5851 5851 5851 5851 5852 5852 5852 5852 5852 5852 5852 5852 5852 5851 5851 5852 5851 5851 5852 5852 5851 5850 5850 5849 5849 5849 5848 5848 5847 5847 5847 5845 5845 5844 5844 5844 5842 5844 5846 5843 5841 5841 5840 5840 5841 5842 5843 5841 5838 5836 5835 5834 5832 5829 5827
5832 5833 5834 5835 5836 5836 5837 5838 5839 5839 5840 5841 5841 5842 5842 5843 5843 5844 5844 5844 5845 5845 5846 5847 5847 5848 5849 5850 5850 5849 5849 5849 5848 5848 5847 5847 5848 5848 5848 5848 5848 5848 5849 5849 5849 5848 5848 5848 5848 5848 5848 5848 5848 5847 5847 5846 5846 5846 5845 5844 5845 5844 5843 5843 5842 5842 5841 5840 5841 5839 5839 5843 5842 5839 5837 5836 5836 5836 5837 5838 5837 5835 5832 5831 5830 5828 5827 5825
5828 5829 5830 5831 5832 5832 5833 5834 5835 5835 5836 5836 5837 5838 5838 5839 5840 5840 5841 5841 5841 5842 5842 5843 5843 5844 5845 5847 5847 5846 5846 5846 5845 5845 5844 5844 5845 5845 5845 5845 5845 5845 5845 5845 5845 5845 5844 5844 5844 5844 5844 5844 5844 5844 5843 5842 5842 5843 5841 5839 5840 5840 5840 5840 5839 5839 5839 5837 5836 5834 5834 5839 5841 5838 5834 5832 5831 5831 5832 5833 5833 5831 5829 5827 5825 5823 5824 5824
5824 5825 5826 5827 5828 5828 5829 5830 5831 5831 5832 5833 5833 5834 5835 5835 5836 5837 5837 5837 5838 5838 5838 5839 5839 5840 5841 5844 5844 5843 5843 5842 5842 5842 5841 5842 5842 5841 5841 5841 5841 5841 5841 5841 5840 5841 5841 5840 5840 5840 5840 5839 5840 5840 5839 5838 5838 5838 5837 5835 5835 5835 5836 5837 5836 5836 5836 5834 5832 5830 5830 5833 5838 5837 5832 5829 5829 5828 5828 5829 5828 5826 5825 5823 5821 5820 5821 5822
5820 5821 5822 5823 5824 5825 5825 5826 5827 5828 5828 5829 5830 5830 5831 5832 5832 5833 5833 5834 5834 5834 5834 5835 5835 5836 5838 5840 5840 5840 5840 5839 5838 5838 5838 5838 5838 5838 5838 5837 5838 5837 5837 5837 5836 5836 5837 5836 5836 5836 5835 5836 5836 5835 5834 5834 5834 5834 5832 5832 5832 5830 5830 5832 5832 5832 5832 5830 5827 5827 5827 5828 5831 5833 5831 5828 5827 5826 5825 5824 5823 5822 5820 5819 5818 5817 5818 5818
5816 5817 5818 5819 5819 5820 5821 5822 5823 5824 5825 5825 5826 5827 5827 5828 5828 5829 5829 5830 5830 5830 5830 5831 5831 5831 5833 5835 5836 5836 5836 5835 5834 5834 5834 5834 5834 5834 5834 5834 5834 5833 5833 5833 5832 5832 5832 5832 5832 5832 5831 5832 5832 5831 5829 5829 5830 5830 5827 5827 5828 5827 5825 5826 5827 5827 5827 5825 5824 5824 5824 5824 5825 5826 5827 5826 5824 5822 5821 5820 5819 5818 5817 5817 5816 5815 5814 5813
5811 5813 5814 5814 5815 5816 5817 5817 5818 5819 5820 5821 5822 5822 5823 5824 5824 5825 5825 5825 5826 5826 5826 5826 5827 5827 5828 5830 5831 5832 5832 5831 5831 5830 5830 5830 5830 5830 5830 5830 5829 5829 5829 5829 5829 5828 5828 5828 5827 5828 5828 5829 5828 5826 5824 5824 5825 5824 5823 5823 5823 5822 5821 5822 5823 5822 5820 5819 5819 5819 5819 5819 5819 5819 5820 5821 5819 5818 5816 5815 5815 5815 5814 5813 5812 5811 5810 5809
5807 5808 5809 5810 5810 5811 5812 5813 5814 5815 5816 5817 5817 5818 5819 5819 5820 5820 5821 5821 5822 5822 5822 5822 5823 5823 5824 5825 5826 5827 5828 5827 5827 5826 5826 5826 5826 5826 5826 5825 5825 5825 5825 5825 5825 5824 5823 5824 5823 5824 5825 5825 5824 5822 5820 5820 5820 5819 5819 5819 5818 5818 5817 5818 5818 5816 5814 5813 5813 5814 5813 5813 5814 5814 5814 5814 5812 5811 5811 5811 5811 5810 5810 5809 5808 5807 5806 5806
5803 5804 5804 5805 5806 5806 5808 5809 5810 5810 5811 5812 5813 5813 5814 5815 5815 5816 5816 5818 5818 5817 5817 5818 5819 5819 5819 5820 5821 5822 5823 5823 5823 5822 5822 5822 5822 5822 5822 5821 5821 5821 5821 5821 5820 5819 5820 5820 5819 5820 5822 5821 5820 5817 5816 5816 5815 5813 5814 5814 5813 5813 5814 5815 5814 5812 5810 5809 5809 5810 5809 5808 5809 5810 5810 5809 5807 5806 5806 5806 5807 5807 5806 5805 5805 5803 5803 5802
5798 5799 5800 5800 5801 5802 5803 5804 5805 5806 5806 5807 5808 5809 5809 5810 5811 5811 5812 5813 5813 5813 5813 5813 5815 5815 5815 5815 5815 5817 5818 5819 5819 5819 5818 5818 5818 5817 5817 5817 5817 5817 5817 5817 5814 5815 5816 5815 5815 5817 5817 5817 5816 5813 5812 5811 5810 5809 5809 5809 5808 5809 5811 5812 5810 5808 5807 5805 5806 5806 5804 5804 5805 5806 5806 5805 5804 5802 5801 5801 5802 5803 5802 5802 5801 5800 5799 5799
5794 5794 5795 5795 5796 5796 5798 5799 5800 5801 5802 5802 5803 5804 5804 5805 5806 5806 5807 5809 5809 5809 5809 5809 5809 5811 5812 5809 5809 5812 5813 5813 5814 5814 5814 5814 5814 5813 5813 5813 5813 5813 5813 5811 5810 5811 5812 5811 5812 5813 5812 5812 5811 5809 5807 5807 5806 5805 5805 5804 5804 5805 5805 5806 5805 5804 5803 5802 5802 5801 5800 5800 5802 5802 5802 5801 5801 5800 5797 5796 5798 5798 5798 5798 5799 5798 5797 5796
5789 5789 5790 5790 5791 5791 5793 5794 5795 5796 5797 5797 5798 5799 5800 5801 5801 5801 5802 5803 5805 5805 5803 5805 5804 5805 5806 5804 5804 5807 5807 5808 5809 5809 5810 5810 5810 5810 5808 5808 5808 5808 5807 5805 5806 5807 5806 5807 5809 5809 5807 5807 5806 5804 5803 5803 5801 5800 5800 5799 5799 5800 5800 5799 5799 5799 5798 5797 5797 5796 5795 5796 5798 5800 5798 5797 5798 5796 5793 5793 5794 5794 5793 5793 5794 5794 5793 5792
5783 5784 5785 5785 5786 5787 5788 5789 5790 5791 5792 5793 5793 5794 5795 5796 5796 5796 5795 5796 5800 5801 5799 5800 5800 5799 5799 5798 5800 5802 5801 5802 5803 5803 5806 5806 5805 5805 5803 5803 5804 5803 5802 5802 5802 5801 5801 5803 5804 5803 5802 5802 5801 5800 5800 5799 5798 5796 5796 5795 5794 5795 5794 5793 5794 5793 5793 5792 5791 5791 5790 5792 5796 5797 5794 5792 5793 5792 5790 5791 5792 5791 5790 5789 5788 5788 5788 5787
5778 5779 5780 5780 5781 5782 5783 5784 5785 5786 5787 5788 5788 5789 5790 5790 5790 5790 5790 5789 5791 5796 5796 5795 5794 5794 5793 5793 5794 5796 5796 5797 5797 5798 5800 5799 5799 5798 5798 5798 5798 5797 5798 5798 5797 5795 5797 5799 5798 5797 5796 5796 5796 5796 5795 5794 5794 5793 5793 5792 5791 5791 5789 5789 5789 5788 5788 5787 5786 5784 5783 5786 5792 5794 5791 5788 5787 5786 5785 5787 5787 5787 5786 5785 5784 5783 5782 5781
5773 5774 5774 5775 5776 5777 5778 5779 5780 5781 5782 5782 5783 5784 5784 5784 5784 5784 5785 5783 5782 5788 5792 5790 5789 5788 5788 5789 5789 5790 5790 5791 5793 5793 5793 5793 5792 5792 5793 5792 5792 5792 5794 5793 5791 5791 5793 5794 5793 5791 5790 5790 5791 5791 5791 5790 5790 5789 5789 5788 5788 5788 5787 5786 5785 5784 5783 5783 5782 5780 5778 5779 5785 5788 5788 5785 5782 5781 5780 5780 5781 5780 5780 5779 5778 5776 5775 5773
5767 5768 5769 5770 5771 5772 5773 5773 5775 5776 5777 5777 5778 5779 5779 5778 5779 5779 5779 5777 5774 5778 5782 5784 5784 5783 5784 5785 5785 5785 5785 5785 5787 5787 5787 5787 5786 5786 5787 5786 5787 5787 5787 5787 5786 5787 5789 5789 5788 5787 5786 5785 5786 5786 5785 5785 5785 5785 5784 5784 5784 5783 5783 5782 5781 5780 5779 5778 5777 5776 5775 5775 5776 5779 5781 5779 5777 5777 5776 5774 5774 5774 5772 5771 5770 5769 5767 5766
5761 5762 5763 5764 5765 5766 5767 5768 5769 5771 5771 5772 5773 5773 5773 5773 5774 5774 5774 5771 5768 5770 5772 5774 5777 5779 5780 5781 5781 5781 5780 5780 5781 5780 5781 5781 5781 5781 5781 5781 5782 5782 5782 5782 5781 5782 5783 5783 5782 5782 5782 5782 5782 5780 5779 5779 5779 5779 5779 5779 5779 5779 5778 5777 5777 5776 5775 5774 5772 5772 5773 5771 5769 5770 5772 5771 5770 5771 5770 5768 5768 5768 5765 5763 5762 5762 5761 5760
5755 5757 5757 5758 5759 5759 5761 5762 5763 5765 5765 5766 5767 5767 5768 5768 5768 5768 5768 5765 5762 5762 5764 5766 5769 5772 5774 5775 5776 5776 5775 5775 5775 5774 5775 5775 5775 5776 5775 5776 5777 5777 5777 5777 5777 5777 5778 5778 5777 5778 5778 5778 5778 5776 5775 5774 5774 5774 5774 5774 5774 5774 5773 5773 5772 5771 5771 5770 5769 5771 5770 5766 5765 5765 5764 5763 5762 5763 5762 5760 5760 5760 5758 5755 5753 5754 5755 5754
5750 5751 5751 5751 5751 5752 5754 5756 5757 5758 5759 5760 5761 5762 5762 5762 5762 5762 5762 5759 5756 5755 5758 5761 5763 5764 5766 5767 5768 5769 5769 5770 5769 5769 5770 5769 5769 5770 5770 5771 5771 5771 5772 5772 5772 5773 5773 5773 5772 5773 5773 5773 5773 5771 5771 5771 5770 5770 5770 5769 5768 5768 5767 5767 5766 5766 5765 5765 5766 5767 5765 5761 5760 5761 5761 5759 5757 5757 5756 5753 5752 5751 5750 5749 5746 5745 5747 5747
5743 5744 5744 5744 5744 5745 5748 5750 5751 5751 5753 5754 5754 5755 5756 5755 5756 5756 5754 5752 5751 5752 5754 5756 5757 5759 5760 5760 5761 5761 5762 5763 5763 5764 5764 5764 5764 5764 5765 5765 5766 5766 5767 5767 5768 5768 5768 5768 5768 5768 5768 5768 5767 5767 5767 5766 5766 5767 5765 5765 5764 5762 5762 5761 5760 5760 5759 5760 5762 5761 5758 5756 5755 5756 5757 5755 5753 5753 5751 5748 5745 5744 5744 5743 5741 5739 5739 5740
5737 5737 5737 5737 5737 5739 5742 5743 5744 5745 5746 5747 5748 5749 5749 5749 5750 5748 5745 5746 5748 5749 5750 5750 5751 5753 5754 5754 5754 5755 5756 5756 5757 5758 5758 5758 5758 5758 5759 5760 5760 5761 5762 5762 5762 5762 5763 5763 5763 5763 5762 5763 5763 5762 5762 5761 5761 5762 5760 5760 5759 5757 5756 5755 5754 5754 5753 5755 5757 5754 5752 5751 5750 5753 5754 5751 5750 5749 5746 5743 5741 5739 5739 5738 5736 5734 5734 5734
5730 5731 5731 5731 5732 5734 5736 5736 5737 5738 5739 5741 5742 5742 5743 5743 5742 5740 5741 5744 5744 5745 5747 5746 5746 5747 5747 5748 5749 5750 5750 5750 5751 5752 5752 5752 5753 5753 5754 5754 5755 5756 5756 5757 5757 5756 5758 5757 5757 5757 5757 5758 5758 5757 5757 5757 5756 5755 5755 5755 5754 5752 5750 5749 5750 5749 5748 5749 5750 5748 5747 5745 5745 5749 5749 5746 5745 5744 5741 5738 5736 5735 5733 5732 5730 5729 5728 5728
5724 5725 5725 5725 5727 5728 5729 5730 5731 5732 5733 5734 5735 5736 5736 5735 5733 5734 5737 5740 5740 5740 5742 5741 5741 5741 5741 5742 5743 5744 5745 5745 5746 5746 5746 5747 5747 5748 5749 5749 5750 5750 5750 5751 5751 5751 5752 5753 5752 5752 5753 5753 5752 5752 5751 5750 5750 5749 5750 5749 5747 5746 5743 5743 5744 5742 5740 5742 5743 5744 5742 5739 5740 5743 5742 5740 5738 5736 5734 5732 5730 5728 5726 5724 5724 5723 5722 5722
5719 5720 5720 5720 5721 5723 5724 5724 5726 5728 5728 5728 5729 5729 5728 5727 5727 5730 5732 5734 5734 5735 5736 5735 5735 5736 5736 5737 5737 5738 5739 5739 5740 5741 5741 5742 5742 5743 5744 5744 5744 5745 5745 5745 5744 5745 5746 5748 5749 5747 5748 5749 5747 5747 5745 5744 5744 5743 5743 5741 5740 5740 5738 5737 5737 5735 5733 5734 5736 5738 5735 5733 5734 5735 5733 5732 5730 5728 5727 5725 5723 5721 5720 5718 5718 5717 5716 5715
5713 5713 5713 5714 5716 5717 5718 5719 5720 5722 5722 5723 5723 5722 5721 5721 5724 5726 5727 5727 5727 5727 5729 5730 5730 5731 5731 5732 5732 5732 5733 5734 5735 5735 5736 5737 5737 5738 5739 5738 5738 5739 5739 5739 5738 5740 5740 5742 5744 5742 5742 5744 5742 5740 5739 5739 5739 5737 5736 5734 5734 5734 5732 5729 5729 5728 5727 5724 5728 5732 5728 5726 5727 5726 5726 5724 5721 5721 5720 5718 5717 5714 5714 5713 5712 5711 5710 5708
5707 5708 5708 5710 5711 5712 5712 5714 5715 5715 5716 5717 5717 5716 5717 5719 5721 5721 5721 5721 5721 5722 5724 5724 5725 5726 5726 5726 5727 5727 5728 5729 5729 5729 5730 5731 5732 5733 5733 5732 5733 5733 5733 5734 5733 5733 5735 5736 5737 5736 5735 5737 5736 5733 5731 5732 5732 5730 5729 5729 5728 5728 5726 5723 5721 5722 5720 5714 5718 5724 5721 5720 5720 5718 5719 5718 5715 5715 5713 5711 5710 5708 5707 5707 5705 5704 5703 5701
5701 5702 5704 5705 5705 5705 5707 5709 5709 5709 5710 5710 5711 5713 5715 5716 5716 5715 5716 5716 5716 5718 5719 5719 5720 5721 5721 5722 5722 5722 5723 5723 5723 5723 5724 5725 5724 5726 5727 5726 5727 5727 5727 5729 5727 5726 5728 5729 5730 5730 5728 5728 5730 5727 5724 5724 5725 5724 5723 5722 5721 5719 5719 5717 5713 5713 5712 5706 5707 5713 5713 5714 5713 5710 5711 5711 5707 5708 5706 5704 5703 5702 5700 5699 5697 5696 5694 5693
5695 5696 5698 5699 5699 5699 5701 5702 5702 5703 5703 5703 5705 5707 5709 5712 5712 5711 5711 5711 5711 5712 5714 5714 5715 5716 5717 5718 5718 5718 5717 5717 5717 5717 5717 5718 5717 5718 5720 5720 5721 5721 5721 5722 5720 5719 5719 5720 5722 5724 5721 5720 5722 5721 5716 5715 5716 5716 5714 5713 5712 5710 5710 5710 5706 5704 5703 5698 5696 5700 5703 5706 5707 5705 5704 5702 5699 5699 5698 5697 5695 5693 5693 5691 5690 5688 5686 5684
5689 5690 5692 5693 5693 5693 5695 5695 5696 5696 5695 5696 5700 5701 5704 5707 5707 5706 5706 5707 5706 5706 5707 5709 5709 5709 5711 5712 5712 5712 5712 5711 5710 5710 5710 5712 5711 5710 5712 5714 5715 5714 5714 5714 5713 5712 5712 5711 5713 5717 5716 5714 5715 5714 5712 5708 5707 5707 5705 5703 5704 5703 5701 5700 5698 5696 5694 5690 5688 5689 5691 5695 5699 5699 5697 5694 5692 5691 5690 5689 5687 5685 5685 5684 5682 5680 5678 5676
5683 5684 5685 5687 5687 5688 5689 5689 5690 5689 5688 5691 5695 5696 5698 5700 5700 5701 5701 5701 5700 5700 5702 5703 5703 5704 5704 5705 5706 5706 5705 5705 5705 5704 5703 5704 5704 5703 5704 5707 5708 5706 5706 5707 5706 5706 5705 5703 5705 5709 5710 5708 5708 5708 5706 5702 5699 5698 5697 5696 5696 5696 5694 5690 5690 5691 5687 5682 5680 5679 5679 5684 5690 5691 5689 5687 5685 5683 5682 5681 5680 5679 5678 5677 5675 5672 5670 5668
5676 5677 5679 5680 5680 5681 5683 5682 5683 5682 5682 5686 5688 5689 5691 5693 5694 5694 5694 5694 5694 5693 5695 5696 5697 5698 5698 5697 5699 5699 5698 5698 5699 5697 5696 5697 5698 5697 5698 5700 5701 5699 5699 5700 5699 5699 5698 5696 5696 5701 5703 5703 5702 5700 5698 5694 5692 5691 5690 5690 5689 5688 5686 5681 5679 5683 5682 5675 5673 5671 5668 5672 5680 5683 5680 5678 5677 5676 5674 5672 5672 5671 5670 5669 5667 5664 5662 5660
5669 5670 5672 5673 5672 5674 5675 5675 5676 5677 5676 5679 5681 5682 5684 5686 5687 5687 5686 5687 5686 5686 5688 5689 5690 5691 5691 5691 5692 5691 5690 5690 5691 5691 5690 5691 5692 5691 5691 5693 5693 5693 5693 5692 5691 5692 5691 5688 5687 5690 5694 5697 5696 5692 5688 5685 5683 5683 5682 5683 5683 5680 5679 5675 5670 5672 5673 5668 5667 5665 5659 5661 5671 5674 5671 5670 5669 5668 5665 5664 5664 5663 5661 5659 5657 5656 5654 5652
5662 5663 5664 5665 5665 5666 5666 5666 5669 5669 5671 5674 5675 5674 5676 5678 5679 5679 5679 5679 5678 5679 5681 5682 5683 5683 5684 5684 5683 5683 5683 5682 5683 5685 5684 5685 5686 5685 5685 5686 5686 5686 5686 5685 5684 5684 5683 5680 5679 5680 5683 5687 5688 5685 5680 5675 5675 5676 5675 5674 5674 5672 5671 5668 5663 5662 5661 5659 5661 5659 5652 5655 5662 5664 5663 5662 5660 5658 5657 5656 5656 5654 5652 5650 5648 5647 5645 5643
5653 5655 5656 5657 5658 5658 5657 5659 5661 5661 5664 5668 5667 5667 5668 5669 5671 5672 5672 5671 5671 5671 5672 5674 5675 5675 5676 5677 5675 5676 5676 5675 5677 5679 5679 5679 5679 5679 5679 5679 5680 5679 5678 5677 5677 5678 5676 5672 5671 5672 5672 5675 5679 5679 5674 5668 5667 5667 5667 5667 5666 5666 5665 5660 5657 5655 5649 5649 5653 5650 5646 5650 5654 5655 5656 5654 5650 5650 5649 5648 5647 5645 5644 5642 5640 5638 5636 5634
5644 5646 5648 5649 5649 5650 5651 5654 5654 5654 5656 5657 5657 5659 5659 5660 5664 5665 5664 5664 5664 5663 5664 5665 5667 5668 5668 5668 5667 5668 5669 5669 5670 5671 5671 5671 5672 5672 5672 5671 5672 5672 5671 5669 5669 5670 5668 5665 5664 5664 5662 5663 5669 5671 5667 5661 5658 5658 5659 5660 5659 5659 5658 5653 5650 5646 5640 5640 5643 5641 5641 5645 5647 5648 5648 5645 5642 5642 5641 5639 5637 5636 5635 5634 5632 5629 5627 5626
5636 5637 5640 5642 5641 5642 5645 5647 5646 5646 5648 5648 5647 5651 5652 5653 5657 5658 5655 5656 5656 5656 5656 5657 5659 5659 5659 5660 5660 5660 5662 5662 5661 5661 5662 5662 5662 5663 5663 5662 5663 5663 5663 5662 5661 5660 5658 5657 5657 5656 5653 5654 5657 5659 5657 5652 5650 5650 5652 5654 5654 5653 5652 5647 5641 5637 5635 5632 5632 5635 5637 5635 5637 5642 5639 5636 5634 5633 5631 5629 5627 5627 5627 5626 5623 5621 5619 5617
5627 5629 5633 5634 5633 5634 5638 5639 5637 5638 5641 5639 5639 5643 5646 5646 5647 5647 5647 5648 5649 5649 5648 5648 5650 5652 5652 5653 5653 5652 5654 5654 5652 5653 5654 5653 5652 5652 5653 5654 5654 5653 5654 5654 5652 5651 5648 5647 5649 5647 5643 5645 5647 5646 5645 5643 5641 5642 5644 5646 5648 5648 5645 5639 5631 5628 5629 5623 5620 5630 5633 5623 5624 5632 5631 5626 5625 5621 5620 5620 5618 5618 5618 5615 5613 5611 5609 5608
5618 5621 5624 5624 5623 5626 5631 5632 5631 5630 5632 5631 5631 5634 5637 5638 5638 5639 5640 5640 5640 5641 5641 5640 5643 5645 5645 5645 5644 5643 5644 5644 5644 5646 5647 5644 5642 5641 5643 5645 5645 5645 5645 5643 5643 5642 5638 5638 5641 5638 5634 5637 5638 5636 5635 5634 5632 5633 5635 5637 5641 5642 5638 5630 5624 5624 5624 5615 5611 5620 5622 5615 5616 5621 5619 5617 5615 5612 5611 5610 5609 5609 5608 5605 5603 5600 5598 5597
5609 5612 5613 5613 5615 5619 5624 5626 5623 5620 5623 5624 5622 5625 5629 5630 5629 5631 5632 5631 5631 5634 5635 5633 5636 5638 5636 5635 5635 5634 5635 5635 5635 5636 5637 5636 5634 5633 5634 5635 5635 5637 5637 5634 5633 5632 5629 5628 5630 5628 5625 5628 5630 5627 5624 5624 5623 5624 5627 5629 5631 5632 5629 5623 5621 5622 5618 5608 5607 5610 5607 5606 5612 5612 5608 5607 5606 5604 5602 5600 5600 5599 5597 5595 5593 5590 5588 5586
5599 5602 5603 5604 5607 5613 5616 5617 5614 5612 5615 5615 5613 5617 5621 5620 5621 5623 5623 5622 5622 5625 5627 5626 5627 5628 5627 5626 5625 5625 5626 5627 5626 5626 5627 5626 5625 5625 5624 5625 5626 5628 5628 5627 5624 5623 5621 5620 5619 5618 5617 5619 5622 5619 5613 5613 5614 5614 5619 5623 5624 5622 5619 5617 5616 5614 5608 5602 5602 5601 5595 5596 5603 5601 5597 5597 5596 5594 5593 5590 5589 5587 5585 5584 5582 5580 5578 5575
5589 5592 5593 5593 5597 5604 5606 5607 5607 5605 5606 5608 5609 5612 5613 5612 5615 5615 5613 5613 5614 5614 5617 5618 5617 5617 5617 5617 5617 5617 5618 5617 5616 5616 5617 5617 5616 5615 5615 5616 5617 5618 5619 5618 5616 5615 5614 5611 5611 5610 5606 5610 5616 5609 5603 5605 5604 5602 5610 5618 5618 5614 5609 5607 5605 5603 5601 5598 5595 5591 5587 5588 5591 5589 5588 5588 5586 5585 5583 5581 5578 5575 5573 5573 5572 5570 5567 5564
5580 5583 5585 5584 5587 5593 5595 5597 5597 5595 5597 5603 5605 5604 5604 5605 5607 5606 5602 5603 5605 5605 5607 5610 5609 5608 5607 5608 5609 5609 5609 5608 5607 5606 5607 5608 5607 5606 5606 5606 5607 5609 5609 5609 5608 5608 5606 5603 5604 5600 5595 5600 5607 5600 5594 5595 5591 5593 5606 5612 5609 5605 5599 5596 5596 5597 5597 5591 5584 5581 5580 5580 5580 5580 5580 5578 5576 5575 5573 5571 5568 5564 5560 5560 5560 5558 5555 5552